Location: Chippewa Lake
(41.0698°N, 81.9010°W)
Time: 00:28:18
(UTC+00:00)

NOSS 2-1 (C) - Pass Details

Date: 09 May 2021
Orbit: 430 x 1771 km, 63.3° (Epoch: 26 May)

Event Time Altitude Azimuth Distance (km) Brightness Sun altitude
Rises 07:28:58 0° 322° (NW) 3,076 7.4 -24.7°
Reaches altitude 10° 07:31:00 10° 320° (NW) 2,304 6.6 -24.5°
Maximum altitude 07:36:18 69° 238° (WSW) 1,027 4.3 -23.9°
Enters shadow 07:42:31 15° 158° (SSE) 2,760 6.6 -23.3°
Exits shadow 07:45:27 - 156° (SSE) 3,807 7.3 -22.9°
Sets 07:47:07 0° 155° (SSE) 4,404 7.6 -22.7°
